Starlink 4776

operational
NORAD ID: 53837 Int'l Des: 2022-114 Owner: SPXS Country: US Constellation: starlink
LEOCIRCULAR

关于 Starlink 4776

正在加载描述...

实时位置

正在加载3D地球...

即将过境

高度历史

Altitude vs Time

uPlot chart will show altitude changes over time

两行轨道根数

1 53837U 22114V 25351.60594533 -.00000099 00000-0 11875-4 0 9992
2 53837 53.2185 312.3171 0001342 81.3540 278.7605 15.08840168180444
Epoch: Dec 17, 2025 • Age: 17 hours

当前状态

高度 551.6 km
速度 7.59 km/s
星下点 -35.35°S, 72.67°E
发射日期 Sep 19, 2022
运行时间 3.2 years
类型 internet

技术详情

分类 Payload
质量 305.00 kg
干质量 290.00 kg
总质量 305.00 kg
长度 0.20 m
直径 2.80 m
跨度 9.00 m
形状 Box + pan
制造商 SPXS
平台类型 Starlink
阶段状态 In Orbit
所有者/国家 SPXS/US

大型星座

Loading constellations...